Regional Weather Roundup
Issued by NWS

Home | Current Version | Previous Version | Graphics & Text | Print | Product List | Glossary On
Versions: 1 2 3 4 5 6 7 8 9 10 11 12 13 14 15 16 17 18 19 20 21 22 23 24 25 26 27 28 29 30 31 32 33 34 35 36 37 38 39 40 41 42 43 44 45 46 47 48 49 50
220
ASUS44 KLIX 231710
RWRLA
LOUISIANA WEATHER ROUNDUP
NATIONAL WEATHER SERVICE NEW ORLEANS LA
1100 AM CST SUN NOV 23 2014

NOTE: "FAIR" INDICATES FEW OR NO CLOUDS BELOW 12,000 FEET WITH NO
      SIGNIFICANT WEATHER AND/OR OBSTRUCTIONS TO VISIBILITY.
      SKY/WX - SKY CONDITION AND SIGNIFICANT WEATHER.
      TMP - AIR TEMPERATURE.    DP   - DEWPOINT TEMPERATURE.
      RH  - RELATIVE HUMIDITY.  PRES - PRESSURE.
      HX  - HEAT INDEX.         WCI  - WIND CHILL INDEX.

*  THESE STATIONS ARE NOT NWS OR FAA STATIONS AND ARE NOT UNDER
   NWS QUALITY CONTROL.

LAZ040-048-061>063-065-066-069-231800-
SOUTHEAST LOUISIANA

CITY           SKY/WX    TMP DP  RH WIND       PRES   REMARKS
N.O. AUDUBON     N/A     64  61  91 MISG        N/A
N.O. INTL ARPT PTSUNNY   68  61  78 SW17G25   29.69S
N.O. LAKEFRONT CLOUDY    66  60  81 S21       29.70R
N.O. DOWNTOWN* FAIR      64  57  77 S13G20    29.71S
SLIDELL        CLOUDY    64  60  87 S13G20    29.69F
BATON ROUGE    CLOUDY    65  60  84 SW10      29.67S
BOOTHVILLE     LGT RAIN  62  62 100 S13       29.76F FOG
BELLE CHASSE   CLOUDY    64  60  87 S20       29.70S
BOGALUSA*        N/A     67  61  81 SW13G20   29.68F
NEW ROADS*     CLOUDY    66  61  82 S10G17    29.66F
GONZALES*      CLOUDY    69  63  81 SW10G20   29.69R
HAMMOND*       CLOUDY    66  59  77 SW13G25   29.69S
HOUMA*         MOSUNNY   68  63  83 S17G25    29.72F
PORT FOURCHON* SUNNY     68  63  83 SW16G25   29.78F

$$

LAZ041-044-053-054-231800-
SOUTHWEST LOUISIANA

CITY           SKY/WX    TMP DP  RH WIND       PRES   REMARKS
LAKE CHARLES   MOSUNNY   67  60  78 SW13G23   29.64F
LAFAYETTE      CLOUDY    67  63  87 SW17G35   29.66F
PATTERSON      CLOUDY    70  63  78 SW20      29.72S
SALT POINT       N/A     70  61  73 SW5       29.69F
NEW IBERIA     LGT RAIN  71  63  75 SW15G36   29.68F
CHENAULT AIRPK MOSUNNY   66  61  82 SW17G29   29.65F

$$

LAZ027-028-231800-
CENTRAL LOUISIANA

CITY           SKY/WX    TMP DP  RH WIND       PRES   REMARKS
FORT POLK      CLOUDY    63  60  91 SW9       29.60F
ALEXANDRIA INT LGT RAIN  65  61  87 SW12G22   29.59F
ALEXANDRIA     CLOUDY    65  59  81 SW15G26   29.60F

$$

LAZ001-002-231800-
NORTHWEST LOUISIANA

CITY           SKY/WX    TMP DP  RH WIND       PRES   REMARKS
SHREVEPORT     CLOUDY    66  62  87 SW17      29.52F
BARKSDALE AFB  CLOUDY    64  64 100 SW10      29.53F
DTN SHREVEPORT CLOUDY    65  60  84 SW10G22   29.53S

$$

LAZ014-016-231800-
NORTHEAST LOUISIANA

CITY           SKY/WX    TMP DP  RH WIND       PRES   REMARKS
MONROE         HVY RAIN  62  61  96 SW16      29.51R FOG
TALLULAH       LGT RAIN  65  62  90 S16G26    29.54F

$$




USA.gov is the U.S. government's official web portal to all federal, state and local government web resources and services.